EW3707 Weather Reports


Display with metric or nautical units.
time (UTC)temp
F
wind
direction
speed
MPH
gust
MPH
rain 1hr
in
rain 24hr
in
rain mn
in
humidity
%
barometer
mb
20260905062016 73 0.0 2.0 0.00 0.00 0.00 31 1015.0
20260905061016 73 0.0 2.0 0.00 0.00 0.00 33 1014.9
20260905060036 73 338 1.0 3.0 0.00 0.00 0.00 37 1015.0
20260905055016 73 0.0 1.0 0.00 0.00 0.00 38 1015.0
20260905054016 73 0.0 0.0 0.00 0.00 0.00 40 1014.9
20260905053016 72 0.0 0.0 0.00 0.00 0.00 40 1014.9
20260905052016 72 0.0 1.0 0.00 0.00 0.00 43 1014.9
20260905051016 72 0.0 1.0 0.00 0.00 0.00 45 1014.9
20260905050016 72 0.0 2.0 0.00 0.00 0.00 46 1014.8
20260905045016 73 0 1.0 4.0 0.00 0.00 0.00 51 1014.8
20260905044017 73 0.0 2.0 0.00 0.00 0.00 50 1014.6
20260905043037 73 0 1.0 8.0 0.00 0.00 0.00 52 1014.6
20260905042016 73 0.0 2.0 0.00 0.00 0.00 50 1014.5
20260905041017 73 0 1.0 5.0 0.00 0.00 0.00 53 1014.3
20260905040016 74 0 1.0 8.0 0.00 0.00 0.00 53 1014.2
20260905035016 74 0.0 3.0 0.00 0.00 0.00 56 1014.3
20260905034017 75 45 1.0 4.0 0.00 0.00 0.00 59 1014.1
20260905033017 75 23 1.0 5.0 0.00 0.00 0.00 62 1014.1
20260905032017 76 0.0 3.0 0.00 0.00 0.00 61 1014.2
20260905031037 76 0 1.0 6.0 0.00 0.00 0.00 64 1014.2
20260905030016 76 0.0 2.0 0.00 0.00 0.00 63 1014.2
20260905025057 77 0.0 2.0 0.00 0.00 0.00 63 1014.2
20260905024017 77 0.0 4.0 0.00 0.00 0.00 63 1014.0
20260905023017 78 0.0 3.0 0.00 0.00 0.00 64 1014.0
20260905022016 78 0.0 2.0 0.00 0.00 0.00 66 1013.9
20260905021017 78 0.0 2.0 0.00 0.00 0.00 67 1013.8
20260905020037 79 0.0 2.0 0.00 0.00 0.00 68 1013.7
20260905015017 79 0.0 0.0 0.00 0.00 0.00 68 1013.6
20260905014016 79 0.0 2.0 0.00 0.00 0.00 67 1013.5
20260905013017 79 0.0 0.0 0.00 0.00 0.00 67 1013.4
20260905012017 80 0.0 2.0 0.00 0.00 0.00 68 1013.2
20260905011017 80 0.0 0.0 0.00 0.00 0.00 69 1013.1
20260905010017 81 0.0 1.0 0.00 0.00 0.00 71 1013.1
20260905005037 81 0.0 0.0 0.00 0.00 0.00 72 1013.0
20260905004016 82 0.0 1.0 0.00 0.00 0.00 73 1012.9
20260905003016 82 0.0 0.0 0.00 0.00 0.00 74 1012.8
20260905002037 83 0.0 0.0 0.00 0.00 0.00 74 1012.7
20260905001037 84 0.0 3.0 0.00 0.00 0.00 74 1012.6
20260905000037 84 0.0 2.0 0.00 0.00 0.00 74 1012.4
20260904235017 85 0.0 3.0 0.00 0.00 0.00 74 1012.3
20260904234016 86 0.0 5.0 0.00 0.00 0.00 73 1012.2
20260904233016 87 0.0 2.0 0.00 0.00 0.00 73 1012.2
20260904232017 87 0.0 2.0 0.00 0.00 0.00 72 1012.2
20260904231016 87 0.0 2.0 0.00 0.00 0.00 72 1012.2
20260904230017 87 0 1.0 4.0 0.00 0.05 0.00 72 1012.2
20260904225017 88 45 1.0 3.0 0.00 0.12 0.00 72 1012.0
20260904224016 88 23 1.0 4.0 0.00 0.13 0.00 72 1011.9
20260904223016 90 23 1.0 4.0 0.00 0.13 0.00 71 1011.9
20260904222036 91 293 1.0 4.0 0.00 0.13 0.00 69 1011.9
20260904221017 91 270 1.0 4.0 0.00 0.13 0.00 69 1011.9
20260904220016 91 0.0 4.0 0.00 0.13 0.00 70 1011.8
20260904215016 91 0.0 1.0 0.00 0.13 0.00 70 1011.7
20260904214036 91 270 1.0 3.0 0.00 0.13 0.00 69 1011.6
20260904213017 90 293 1.0 4.0 0.00 0.13 0.00 70 1011.6
20260904212016 91 338 1.0 3.0 0.00 0.13 0.00 70 1011.6
20260904211016 91 0.0 2.0 0.00 0.13 0.00 69 1011.6
20260904210037 91 0.0 3.0 0.00 0.13 0.00 69 1011.6
20260904205016 91 315 1.0 4.0 0.00 0.13 0.00 70 1011.5
20260904204016 92 270 1.0 4.0 0.00 0.13 0.00 69 1011.5
20260904203036 91 23 1.0 4.0 0.00 0.13 0.00 70 1011.4
20260904202016 91 0.0 2.0 0.00 0.13 0.00 71 1011.3
20260904201017 91 23 2.0 6.0 0.00 0.14 0.00 70 1011.3
20260904200016 91 0.0 2.0 0.00 0.18 0.00 69 1011.5
20260904195036 92 0.0 3.0 0.00 0.18 0.00 68 1011.5
20260904194016 91 270 1.0 8.0 0.00 0.18 0.00 70 1011.8
20260904193036 91 338 2.0 6.0 0.00 0.18 0.00 68 1011.7
20260904192016 91 0.0 2.0 0.00 0.18 0.00 68 1011.7
20260904191016 91 0.0 2.0 0.00 0.19 0.00 69 1011.8
20260904190016 90 248 1.0 5.0 0.00 0.22 0.00 70 1011.8
20260904185016 91 248 1.0 6.0 0.00 0.22 0.00 69 1011.8
20260904184036 90 0.0 1.0 0.00 0.23 0.00 70 1011.9
20260904183016 90 270 1.0 2.0 0.00 0.23 0.00 69 1011.8
20260904182016 89 0.0 3.0 0.00 0.23 0.00 72 1011.9
20260904181016 88 0.0 2.0 0.00 0.23 0.00 73 1011.8
20260904180016 87 0.0 2.0 0.00 0.23 0.00 73 1011.9
20260904175017 87 0.0 2.0 0.00 0.23 0.00 74 1011.8
20260904174016 87 0.0 3.0 0.00 0.23 0.00 73 1012.0
20260904173016 87 0.0 2.0 0.00 0.23 0.00 74 1012.0
20260904172017 86 0.0 3.0 0.00 0.24 0.00 74 1012.1
20260904171016 87 293 1.0 3.0 0.00 0.24 0.00 73 1012.0
20260904170016 85 0 2.0 4.0 0.00 0.24 0.00 74 1011.9
20260904165016 86 90 2.0 6.0 0.00 0.27 0.00 74 1011.8
20260904164017 86 113 1.0 5.0 0.00 0.27 0.00 74 1011.8
20260904163016 84 90 1.0 5.0 0.00 0.27 0.00 74 1012.0
20260904162016 84 113 2.0 4.0 0.00 0.27 0.00 74 1012.1
20260904161016 83 0.0 2.0 0.00 0.28 0.00 73 1012.2
20260904160016 82 90 1.0 5.0 0.00 0.29 0.00 72 1012.3
20260904155016 81 0.0 2.0 0.00 0.29 0.00 67 1012.2
20260904154016 79 68 1.0 4.0 0.00 0.29 0.00 62 1012.1
20260904153056 78 90 2.0 4.0 0.00 0.29 0.00 47 1012.0
20260904152016 77 68 2.0 4.0 0.00 0.29 0.00 31 1012.0
20260904151016 76 0.0 2.0 0.00 0.29 0.00 14 1012.0
20260904150016 76 90 1.0 3.0 0.00 0.29 0.00 9 1012.0
20260904145016 76 113 1.0 4.0 0.00 0.34 0.00 5 1012.1
20260904144016 76 113 1.0 5.0 0.00 0.35 0.00 1 1012.1
20260904143016 76 0.0 3.0 0.00 0.35 0.00 1 1012.0
20260904142016 75 0.0 0.0 0.00 0.35 0.00 1 1012.1
20260904141016 74 0.0 3.0 0.00 0.35 0.00 1 1012.0
20260904140016 74 0.0 4.0 0.00 0.35 0.00 1 1012.0
20260904135016 74 135 1.0 5.0 0.00 0.36 0.00 1 1011.9
20260904134016 74 0.0 2.0 0.00 0.36 0.00 1 1011.8
20260904133017 73 90 1.0 3.0 0.00 0.36 0.00 1 1011.7
20260904132016 73 113 1.0 4.0 0.00 0.37 0.00 1 1011.5
20260904131016 73 113 2.0 7.0 0.00 0.37 0.00 1 1011.5
20260904130016 73 0.0 2.0 0.00 0.38 0.00 1 1011.7
20260904125016 73 0.0 2.0 0.00 0.42 0.00 1 1011.5
20260904124016 72 0.0 1.0 0.00 0.42 0.00 1 1011.6
20260904123056 72 0.0 2.0 0.00 0.42 0.00 1 1011.4
20260904122016 72 0 1.0 4.0 0.00 0.42 0.00 1 1011.5
20260904121036 72 0.0 2.0 0.00 0.42 0.00 1 1011.3
20260904120016 72 0.0 0.0 0.00 0.42 0.00 1 1011.1
20260904115016 71 0.0 1.0 0.00 0.42 0.00 1 1010.9
20260904114036 71 0.0 4.0 0.00 0.42 0.00 1 1010.6
20260904113016 71 0.0 0.0 0.00 0.42 0.00 1 1010.5
20260904112016 71 0.0 0.0 0.00 0.42 0.00 1 1010.2
20260904111016 71 0.0 0.0 0.00 0.42 0.00 1 1010.2
20260904110016 71 0.0 0.0 0.00 0.42 0.00 1 1010.2
20260904105016 71 0.0 0.0 0.00 0.42 0.00 1 1010.3
20260904104036 71 0.0 0.0 0.00 0.42 0.00 1 1010.3
20260904103016 72 0.0 0.0 0.00 0.42 0.00 1 1010.2
20260904102016 72 0.0 0.0 0.00 0.42 0.00 1 1010.2
20260904101017 72 0.0 0.0 0.00 0.42 0.00 1 1010.1
20260904100036 72 0.0 0.0 0.00 0.42 0.00 1 1010.2
20260904095016 72 0.0 0.0 0.00 0.42 0.00 1 1010.3
20260904094016 72 0.0 0.0 0.00 0.42 0.00 1 1010.4
20260904093016 73 0.0 0.0 0.00 0.42 0.00 1 1010.5
20260904092016 73 0.0 0.0 0.00 0.42 0.00 1 1010.5
20260904091016 73 0.0 0.0 0.00 0.42 0.00 1 1010.4
20260904090036 73 0.0 0.0 0.00 0.42 0.00 1 1010.2
20260904085016 73 0.0 0.0 0.00 0.42 0.00 1 1010.3
20260904084016 73 0.0 1.0 0.00 0.42 0.00 1 1010.3
20260904083016 73 0.0 0.0 0.00 0.42 0.00 1 1010.2
20260904082016 73 0.0 0.0 0.00 0.42 0.00 1 1010.1
20260904081016 73 0.0 0.0 0.00 0.42 0.00 1 1010.0
20260904080016 73 0.0 0.0 0.00 0.42 0.00 1 1009.9
20260904075036 73 0.0 0.0 0.00 0.42 0.00 1 1009.9
20260904074016 73 0.0 0.0 0.00 0.42 0.00 1 1009.9
20260904073016 73 0.0 0.0 0.00 0.42 0.00 1 1010.0
20260904072016 73 0.0 0.0 0.00 0.42 0.00 1 1010.0
20260904071016 74 0.0 0.0 0.00 0.42 0.00 1 1010.2
20260904070016 74 0.0 0.0 0.00 0.42 0.00 1 1010.1
20260904065016 74 0.0 0.0 0.00 0.42 0.00 1 1010.3
20260904064016 74 0.0 0.0 0.00 0.42 0.00 1 1010.5
20260904063016 74 0.0 0.0 0.00 0.42 0.00 7 1010.6